This is the latest recevied weather packets stored in our database for station/object IU1OLT-7. If no packets are shown the sender has not sent any weather packets the latest 10 day(s).
| Time | Temp. | Humidity | Pressure | Rain* | Wind** | Luminosity | Snow |
|---|---|---|---|---|---|---|---|
| 1777767768 | 15.56° C | 30% | 1023.1 hPa | - | - | - | - |
| 1777766868 | 15.56° C | 30% | 1023.2 hPa | - | - | - | - |
| 1777765968 | 15.56° C | 29% | 1023.3 hPa | - | - | - | - |
| 1777765068 | 15° C | 29% | 1023.4 hPa | - | - | - | - |
| 1777764168 | 15° C | 30% | 1023.5 hPa | - | - | - | - |
| 1777763268 | 15° C | 29% | 1023.6 hPa | - | - | - | - |
| 1777761468 | 15° C | 26% | 1023.7 hPa | - | - | - | - |
| 1777760568 | 15° C | 25% | 1023.7 hPa | - | - | - | - |
| 1777759668 | 14.44° C | 27% | 1023.9 hPa | - | - | - | - |
| 1777758768 | 14.44° C | 28% | 1024 hPa | - | - | - | - |
| 1777757868 | 14.44° C | 28% | 1023.9 hPa | - | - | - | - |
| 1777756968 | 14.44° C | 27% | 1023.9 hPa | - | - | - | - |
| 1777756068 | 15° C | 26% | 1024 hPa | - | - | - | - |
| 1777755168 | 16.11° C | 25% | 1024 hPa | - | - | - | - |
| 1777754268 | 16.11° C | 28% | 1024 hPa | - | - | - | - |
| 1777753368 | 16.67° C | 26% | 1024.1 hPa | - | - | - | - |
| 1777752468 | 16.67° C | 27% | 1024.1 hPa | - | - | - | - |
| 1777751568 | 16.67° C | 28% | 1024.1 hPa | - | - | - | - |
| 1777750668 | 16.11° C | 27% | 1024.1 hPa | - | - | - | - |
| 1777749768 | 16.11° C | 28% | 1024.1 hPa | - | - | - | - |
| 1777748869 | 15.56° C | 27% | 1024.1 hPa | - | - | - | - |
| 1777747968 | 16.11° C | 30% | 1024 hPa | - | - | - | - |
| 1777747068 | 15.56° C | 40% | 1024 hPa | - | - | - | - |
| 1777746168 | 15.56° C | 40% | 1023.9 hPa | - | - | - | - |
| 1777745268 | 17.22° C | 37% | 1023.8 hPa | - | - | - | - |
* Rain since midnight (hover to see other rain measurements)
** Current wind speed in m/s (hover to see current wind gust speed)